Location: Mountain Grove
(34.0887°N, 86.6172°W)
Time: 15:20:10
(UTC+00:00)

MSX - Pass Details

Date: 14 July 2020
Orbit: 894 x 906 km, 98.8° (Epoch: 13 August)

Event Time Altitude Azimuth Distance (km) Brightness Sun altitude
Rises 08:54:36 0° 17° (NNE) 3,514 8.0 -19.5°
Reaches altitude 10° 08:57:03 10° 21° (NNE) 2,571 7.2 -19.1°
Maximum altitude 09:02:42 60° 101° (E) 1,018 4.2 -18.3°
Enters shadow 09:07:33 14° 179° (S) 2,270 5.5 -17.5°
